1509350400.91,32395,8.63,71942.3,-11.89,-12.79,-12.79,0,*6F
1509350402.17,32396,8.63,71942.8,-11.89,-12.79,-12.89,0,*63
1509350403.42,32397,8.63,71946.8,-11.89,-12.89,-12.89,0,*6D
1509350404.66,32398,8.63,71954.0,-11.89,-12.89,-12.93,0,*69
1509350405.9,32399,8.63,71952.5,-11.89,-13.07,-13.07,0,*63
1509350407.17,32400,8.63,71948.0,-11.89,-13.01,-12.93,0,*6E
1509350408.47,32401,8.63,71954.5,-11.89,-12.79,-12.79,0,*65
1509350409.75,32402,8.63,71964.8,-11.87,-12.75,-12.71,0,*6C
1509350411.04,32403,8.63,71966.5,-11.89,-12.75,-12.75,0,*67
1509350412.34,32404,8.63,71962.5,-11.89,-12.75,-12.75,0,*60
1509350413.62,32405,8.63,71958.5,-11.87,-12.75,-12.75,0,*6F
1509350414.9,32406,8.63,71968.0,-11.87,-12.79,-12.79,0,*6C
1509350416.12,32407,8.63,71956.0,-11.87,-12.89,-12.89,0,*6D
1509350417.39,32408,8.63,71948.3,-11.89,-13.01,-13.07,0,*6A
1509350418.66,32409,8.63,71944.0,-11.87,-12.79,-12.79,0,*63
1509350419.94,32410,8.63,71936.0,-11.87,-12.79,-12.71,0,*63
1509350421.18,32411,8.63,71932.5,-11.89,-13.07,-13.15,0,*67
1509350422.42,32412,8.63,71924.3,-11.89,-13.07,-13.19,0,*68
1509350423.66,32413,8.63,71930.8,-11.89,-13.07,-13.07,0,*66
1509350424.9,32414,8.63,71918.3,-11.89,-12.89,-12.89,0,*61
1509350426.13,32415,8.63,71934.3,-11.87,-12.89,-12.93,0,*65
1509350427.39,32416,8.63,71960.0,-11.89,-12.93,-13.01,0,*69
1509350428.66,32417,8.63,71960.5,-11.89,-13.19,-13.29,0,*61
1509350429.95,32418,8.63,71962.5,-11.89,-13.33,-13.33,0,*6D
1509350431.25,32419,8.63,71992.8,-11.89,-12.79,-12.79,0,*6C
1509350432.51,32420,8.63,72022.8,-11.89,-13.15,-13.33,0,*62
1509350433.75,32421,8.63,72026.3,-11.89,-13.43,-13.47,0,*63
1509350434.96,32422,8.63,72000.8,-11.91,-13.47,-13.51,0,*6A
1509350436.17,32423,8.63,71980.3,-11.95,-13.47,-13.65,0,*68
1509350437.42,32424,8.63,71968.5,-11.91,-13.61,-13.65,0,*6F
1509350438.68,32425,8.63,71958.5,-11.95,-13.37,-13.37,0,*6E
1509350439.9,32426,8.63,71976.3,-11.95,-13.11,-13.23,0,*6C
1509350441.12,32427,8.63,71970.5,-11.95,-13.23,-13.51,0,*69
1509350442.37,32428,8.63,71950.0,-11.95,-13.73,-13.83,0,*6C
1509350443.58,32429,8.63,71950.8,-11.95,-13.65,-13.73,0,*65
1509350444.8,32430,8.63,71966.5,-11.95,-13.65,-13.65,0,*6A
1509350446.07,32431,8.63,71958.8,-11.95,-13.61,-13.61,0,*6B
1509350447.28,32432,8.63,71946.3,-11.91,-13.73,-13.73,0,*6C
1509350448.52,32433,8.63,71934.3,-11.95,-13.73,-13.83,0,*66
1509350449.78,32434,8.63,71922.0,-11.95,-13.51,-13.61,0,*6D
1509350451.01,32435,8.63,71926.5,-11.99,-13.29,-13.15,0,*6C
1509350452.31,32436,8.63,71932.0,-11.97,-13.29,-13.29,0,*6E
1509350453.53,32437,8.63,71944.3,-11.95,-13.23,-13.23,0,*6D
1509350454.82,32438,8.63,71950.0,-11.97,-13.29,-13.37,0,*6F
1509350456.08,32439,8.63,71958.3,-11.97,-13.29,-13.43,0,*6D
1509350457.35,32440,8.63,71966.5,-11.97,-13.37,-13.23,0,*6A
1509350458.64,32441,8.63,71976.5,-11.97,-13.29,-13.29,0,*6E
1509350459.91,32442,8.63,71986.3,-11.99,-13.37,-13.37,0,*63
1509350461.2,32443,8.63,71974.8,-11.97,-13.29,-13.29,0,*6C
1509350462.45,32444,8.63,71970.3,-11.97,-13.51,-13.51,0,*6B
1509350463.69,32445,8.63,71982.5,-11.97,-13.55,-13.55,0,*6A
1509350464.99,32446,8.63,71994.0,-11.97,-13.83,-13.87,0,*6D
1509350466.23,32447,8.63,71970.5,-11.97,-13.51,-13.65,0,*6F
1509350467.46,32448,8.63,71952.3,-11.99,-13.51,-13.55,0,*6D
1509350468.68,32449,8.63,71948.8,-11.99,-13.51,-13.55,0,*6C
1509350469.97,32450,8.63,71942.3,-11.97,-13.29,-13.29,0,*6E
1509350471.24,32451,8.63,71914.0,-11.97,-13.23,-13.29,0,*65
1509350472.48,32452,8.63,71894.8,-11.99,-13.43,-13.37,0,*61
1509350473.69,32453,8.63,71886.8,-11.95,-13.47,-13.47,0,*6F
1509350474.98,32454,8.63,71856.5,-11.97,-13.29,-13.29,0,*6A
1509350476.25,32455,8.63,71870.0,-11.97,-13.51,-13.37,0,*6B
1509350477.49,32456,8.63,71928.8,-11.97,-13.15,-13.23,0,*6D
1509350478.76,32457,8.63,71894.3,-11.97,-13.23,-13.29,0,*63
1509350480.0,32458,8.63,71930.8,-11.97,-13.23,-13.23,0,*66
1509350481.24,32459,8.63,71942.8,-11.97,-13.23,-13.15,0,*62
1509350482.48,32460,8.63,71866.0,-11.97,-13.11,-13.11,0,*6D
1509350483.72,32461,8.63,71886.5,-11.99,-13.23,-13.29,0,*68
1509350485.02,32462,8.63,71914.5,-11.97,-13.29,-13.37,0,*60
1509350486.25,32463,8.63,71924.5,-11.97,-13.11,-13.15,0,*6A
1509350487.54,32464,8.63,71912.5,-11.97,-13.01,-13.01,0,*69
1509350488.79,32465,8.63,71886.3,-11.97,-13.23,-13.23,0,*68
1509350490.08,32466,8.63,71920.3,-11.97,-13.37,-13.37,0,*6B
1509350491.32,32467,8.63,71908.8,-11.97,-13.43,-13.43,0,*6A
1509350492.56,32468,8.63,71876.3,-11.97,-13.65,-13.55,0,*66
1509350493.77,32469,8.63,71908.8,-11.99,-13.65,-13.65,0,*6A
1509350495.03,32470,8.63,71906.0,-11.97,-13.69,-13.79,0,*6D
1509350496.24,32471,8.63,71902.3,-11.99,-13.65,-13.65,0,*63
1509350497.48,32472,8.63,71924.3,-11.97,-13.69,-13.69,0,*6E
1509350498.69,32473,8.63,71924.8,-11.99,-13.69,-13.69,0,*61
1509350499.93,32474,8.63,71936.3,-11.99,-13.37,-13.43,0,*65
1509350501.14,32475,8.63,71952.0,-11.99,-13.15,-13.15,0,*67
1509350502.41,32476,8.63,71948.5,-11.97,-13.29,-13.23,0,*60
1509350503.64,32477,8.63,71948.8,-11.99,-13.37,-13.43,0,*66
1509350504.86,32478,8.63,71964.3,-11.99,-13.23,-13.15,0,*6F
1509350506.07,32479,8.63,71974.8,-11.99,-13.15,-13.15,0,*6B
1509350507.31,32480,8.63,71974.3,-11.99,-13.23,-13.29,0,*67
1509350508.58,32481,8.63,71974.0,-11.97,-13.01,-13.11,0,*63
1509350509.81,32482,8.63,71988.5,-11.97,-13.15,-13.15,0,*61
1509350511.07,32483,8.63,71990.0,-11.97,-13.15,-13.29,0,*6F
1509350512.32,32484,8.63,71996.0,-11.97,-13.11,-13.23,0,*66
1509350513.56,32485,8.63,72014.0,-11.97,-13.11,-13.23,0,*67
1509350514.8,32486,8.63,72026.8,-11.97,-13.15,-13.23,0,*60
1509350516.02,32487,8.63,72018.3,-11.99,-13.51,-13.65,0,*6D
1509350517.28,32488,8.63,72040.0,-11.97,-13.37,-13.43,0,*68
1509350518.52,32489,8.63,72024.3,-11.97,-13.65,-13.69,0,*66
1509350519.78,32490,8.63,72036.5,-11.97,-13.37,-13.55,0,*66
1509350521.03,32491,8.63,72020.8,-11.97,-13.55,-13.51,0,*67
1509350522.32,32492,8.63,72016.0,-11.97,-13.37,-13.37,0,*60
1509350523.55,32493,8.63,72014.5,-11.97,-13.69,-13.69,0,*61
1509350524.77,32494,8.63,72024.8,-11.99,-13.51,-13.43,0,*6B
1509350526.02,32495,8.63,72026.3,-11.99,-13.29,-13.23,0,*63
1509350527.26,32496,8.63,72024.0,-11.97,-13.23,-13.23,0,*64
1509350528.53,32497,8.63,72026.0,-11.97,-13.43,-13.37,0,*66
1509350529.82,32498,8.63,72016.3,-11.97,-13.83,-13.83,0,*6A
1509350531.03,32499,8.63,71992.8,-11.95,-13.93,-13.93,0,*69
1509350532.25,32500,8.63,71994.8,-11.95,-14.33,-14.23,0,*69
1509350533.51,32501,8.63,71972.3,-11.97,-14.15,-14.15,0,*6B
1509350534.76,32502,8.63,71940.8,-11.97,-14.23,-14.15,0,*6D
1509350535.97,32503,8.63,71932.5,-11.99,-14.11,-14.11,0,*67
1509350537.26,32504,8.63,71928.5,-11.97,-13.87,-13.87,0,*6E
1509350538.47,32505,8.63,71930.0,-11.99,-13.69,-13.69,0,*61
1509350539.69,32506,8.63,71938.8,-11.99,-13.65,-13.65,0,*62
1509350540.92,32507,8.63,71924.0,-11.97,-13.69,-13.69,0,*6D
1509350542.17,32508,8.63,71914.3,-11.99,-13.83,-13.65,0,*64
1509350543.45,32509,8.63,71908.3,-11.97,-13.87,-13.83,0,*67
1509350544.7,32510,8.63,71904.5,-11.97,-13.65,-13.55,0,*68
1509350545.91,32511,8.63,71904.3,-11.99,-13.65,-13.55,0,*67
1509350547.12,32512,8.63,71906.3,-11.99,-13.69,-13.65,0,*6B
1509350548.34,32513,8.63,71910.3,-11.99,-13.43,-13.51,0,*65
1509350549.58,32514,8.63,71910.0,-11.97,-13.65,-13.65,0,*6F
1509350550.84,32515,8.63,71908.5,-11.99,-13.37,-13.37,0,*60
1509350552.08,32516,8.63,71908.5,-11.97,-13.43,-13.43,0,*6D
1509350553.29,32517,8.63,71910.5,-11.99,-13.43,-13.43,0,*62
1509350554.53,32518,8.63,71918.8,-11.97,-13.43,-13.43,0,*63
1509350555.8,32519,8.63,71924.8,-11.97,-13.43,-13.37,0,*61
1509350557.09,32520,8.63,71926.8,-11.97,-13.29,-13.29,0,*68
1509350558.35,32521,8.63,71936.0,-11.97,-13.79,-13.69,0,*68
1509350559.64,32522,8.63,71946.0,-11.97,-13.37,-13.29,0,*65
1509350560.93,32523,8.63,71946.5,-11.97,-13.37,-13.29,0,*64
1509350562.17,32524,8.63,71944.3,-11.95,-13.47,-13.37,0,*69
1509350563.41,32525,8.63,71948.8,-11.97,-13.43,-13.43,0,*6D
1509350564.67,32526,8.63,71952.0,-11.97,-13.15,-13.01,0,*6B
1509350565.9,32527,8.63,71954.8,-11.97,-13.15,-13.11,0,*6B
1509350567.14,32528,8.63,71956.0,-11.97,-13.15,-13.11,0,*64
1509350568.38,32529,8.63,71964.0,-11.97,-13.43,-13.43,0,*61
1509350569.61,32530,8.63,71960.0,-11.97,-13.65,-13.69,0,*65
1509350570.83,32531,8.63,71970.0,-11.99,-13.69,-13.65,0,*6A
1509350572.04,32532,8.63,71976.0,-11.99,-13.55,-13.65,0,*66
1509350573.28,32533,8.63,71982.3,-11.97,-13.43,-13.43,0,*6A
1509350574.52,32534,8.63,71984.8,-11.97,-13.43,-13.43,0,*6D
1509350575.79,32535,8.63,71994.0,-11.99,-13.37,-13.29,0,*6D
1509350577.05,32536,8.63,71992.0,-11.97,-13.29,-13.43,0,*63
1509350578.34,32537,8.63,71996.8,-11.97,-13.37,-13.29,0,*61
1509350579.58,32538,8.63,72000.5,-11.99,-13.43,-13.37,0,*6C
1509350580.82,32539,8.63,72004.8,-11.97,-13.51,-13.43,0,*63
1509350582.06,32540,8.63,72008.3,-11.97,-13.43,-13.43,0,*6E
1509350583.35,32541,8.63,72008.5,-11.97,-13.29,-13.29,0,*6F
1509350584.62,32542,8.63,72018.3,-11.97,-13.15,-13.29,0,*63
1509350585.91,32543,8.63,72016.5,-11.97,-13.29,-13.29,0,*6D
1509350587.15,32544,8.63,72020.8,-11.97,-13.43,-13.51,0,*69
1509350588.37,32545,8.63,72020.8,-11.99,-13.23,-13.23,0,*65
1509350589.66,32546,8.63,72022.0,-11.97,-13.29,-13.29,0,*68
1509350590.9,32547,8.63,72026.5,-11.97,-13.55,-13.55,0,*69
1509350592.19,32548,8.63,72026.8,-11.97,-13.29,-13.29,0,*66
1509350593.48,32549,8.63,72026.3,-11.97,-13.37,-13.37,0,*67
1509350594.75,32550,8.63,72024.5,-11.97,-13.23,-13.29,0,*65
1509350596.04,32551,8.63,72028.0,-11.97,-13.29,-13.37,0,*61
1509350597.28,32552,8.63,72026.5,-11.97,-13.15,-13.23,0,*68
1509350598.57,32553,8.63,72022.5,-11.97,-13.29,-13.29,0,*6C
1509350599.87,32554,8.63,72020.3,-11.97,-13.37,-13.29,0,*64
1509350601.16,32555,8.63,72022.0,-11.97,-13.29,-13.29,0,*6A
1509350602.43,32556,8.63,72022.8,-11.97,-13.51,-13.37,0,*69
1509350603.72,32557,8.63,72018.5,-11.97,-13.37,-13.37,0,*68
1509350604.99,32558,8.63,72020.0,-11.97,-13.23,-13.29,0,*6D
1509350606.23,32559,8.63,72016.8,-11.97,-13.11,-13.15,0,*62
1509350607.46,32560,8.63,72018.5,-11.97,-13.11,-13.15,0,*68
1509350608.71,32561,8.63,72016.3,-11.97,-13.11,-13.11,0,*6D
1509350609.99,32562,8.63,72016.3,-11.97,-13.01,-13.01,0,*6E
1509350611.28,32563,8.63,72012.0,-11.97,-13.01,-13.01,0,*6F
1509350612.53,32564,8.63,72008.5,-11.97,-13.11,-12.97,0,*67
1509350613.75,32565,8.63,72012.5,-11.95,-12.97,-12.93,0,*6F
1509350614.97,32566,8.63,72010.0,-11.91,-13.07,-12.93,0,*60
1509350616.19,32567,8.63,72008.8,-11.91,-13.11,-12.97,0,*62
1509350617.4,32568,8.63,72008.5,-11.95,-13.11,-13.07,0,*61
1509350618.63,32569,8.63,72010.0,-11.91,-12.97,-12.97,0,*63
1509350619.87,32570,8.63,72010.5,-11.91,-12.93,-12.79,0,*6F
1509350621.14,32571,8.63,72012.0,-11.91,-12.79,-12.65,0,*67
1509350622.41,32572,8.63,72016.0,-11.91,-12.65,-12.61,0,*6D
1509350623.7,32573,8.63,72018.0,-11.89,-12.71,-12.57,0,*65
1509350624.94,32574,8.63,72018.0,-11.87,-12.61,-12.47,0,*6C
1509350626.24,32575,8.63,72024.0,-11.89,-12.75,-12.57,0,*67
1509350627.53,32576,8.63,72028.8,-11.89,-12.71,-12.57,0,*60
1509350628.82,32577,8.63,72034.5,-11.89,-12.75,-12.57,0,*65
1509350630.1,32578,8.63,72034.8,-11.87,-12.75,-12.61,0,*61
1509350631.38,32579,8.63,72046.0,-11.87,-12.75,-12.75,0,*65
1509350632.62,32580,8.63,72038.8,-11.87,-13.07,-13.01,0,*65
1509350633.91,32581,8.63,72038.8,-11.85,-12.71,-12.65,0,*65
1509350635.2,32582,8.63,72034.0,-11.85,-12.65,-12.65,0,*63
1509350636.44,32583,8.63,72032.8,-11.85,-12.43,-12.39,0,*6F
1509350637.68,32584,8.63,72036.3,-11.85,-12.39,-12.25,0,*68
1509350638.9,32585,8.63,72032.5,-11.83,-12.25,-12.25,0,*62
1509350640.15,32586,8.63,72034.3,-11.83,-12.53,-12.39,0,*6D
1509350641.37,32587,8.63,72038.3,-11.83,-12.43,-12.39,0,*6D
1509350642.61,32588,8.63,72036.5,-11.83,-12.57,-12.43,0,*6A
1509350643.91,32589,8.63,72030.5,-11.85,-12.71,-12.71,0,*68
1509350645.21,32590,8.63,72034.5,-11.81,-12.35,-12.35,0,*64
1509350646.46,32591,8.63,72028.8,-11.79,-12.47,-12.53,0,*67
1509350647.68,32592,8.63,72020.8,-11.79,-13.19,-13.11,0,*69
1509350648.92,32593,8.63,72016.0,-11.79,-13.37,-13.11,0,*64
1509350650.19,32594,8.63,72016.0,-11.79,-12.83,-12.71,0,*6A
1509350651.46,32595,8.63,72018.5,-11.75,-12.65,-12.57,0,*6B
1509350652.7,32596,8.63,72026.0,-11.75,-12.65,-12.43,0,*6D
1509350653.96,32597,8.63,72020.5,-11.75,-12.57,-12.15,0,*6E
1509350655.2,32598,8.63,72016.3,-11.75,-12.93,-12.65,0,*6E
1509350656.47,32599,8.63,72014.0,-11.75,-12.57,-12.35,0,*62
1509350657.74,32600,8.63,72002.5,-11.73,-12.57,-12.47,0,*62
1509350659.04,32601,8.63,71962.5,-11.71,-12.75,-12.71,0,*64
1509350660.29,32602,8.63,71994.3,-11.71,-12.97,-12.97,0,*63
1509350661.58,32603,8.63,71994.8,-11.73,-13.61,-13.83,0,*6C
1509350662.82,32604,8.63,71990.5,-11.71,-14.11,-14.11,0,*65
1509350664.07,32605,8.63,71966.8,-11.71,-14.29,-14.37,0,*6B
1509350665.31,32606,8.63,71972.8,-11.73,-14.33,-14.19,0,*6D
1509350666.55,32607,8.63,71954.8,-11.75,-14.43,-14.29,0,*6E
1509350667.82,32608,8.63,71958.8,-11.75,-14.05,-14.05,0,*6D
1509350669.04,32609,8.63,71976.0,-11.75,-14.19,-14.19,0,*6C
1509350670.32,32610,8.63,71930.3,-11.75,-14.05,-14.01,0,*60
1509350671.54,32611,8.63,71934.5,-11.79,-14.37,-14.33,0,*6D
1509350672.75,32612,8.63,71936.3,-11.75,-14.33,-14.33,0,*66
1509350674.0,32613,8.63,71914.8,-11.79,-13.97,-13.93,0,*6F
1509350675.27,32614,8.63,71910.3,-11.79,-14.55,-14.51,0,*68
1509350676.49,32615,8.63,71918.5,-11.79,-14.19,-14.19,0,*6D
1509350677.76,32616,8.63,71918.0,-11.81,-13.61,-13.65,0,*6D
1509350679.0,32617,8.63,71924.5,-11.81,-13.65,-13.65,0,*68
1509350680.22,32618,8.63,71940.3,-11.79,-13.23,-13.23,0,*60
1509350681.49,32619,8.63,71972.3,-11.81,-13.61,-13.51,0,*65
1509350682.73,32620,8.63,71976.5,-11.81,-13.47,-13.47,0,*6C
1509350683.97,32621,8.63,71972.0,-11.79,-13.65,-13.61,0,*6E
1509350685.18,32622,8.63,71968.0,-11.79,-13.69,-13.69,0,*69
1509350686.45,32623,8.63,71972.5,-11.79,-13.79,-13.83,0,*6D
1509350687.72,32624,8.63,71968.5,-11.81,-13.97,-14.11,0,*61
1509350689.01,32625,8.63,71956.8,-11.81,-13.83,-13.79,0,*6C
1509350690.31,32626,8.63,71948.0,-11.81,-13.61,-13.61,0,*6A
1509350691.57,32627,8.63,71942.8,-11.79,-13.79,-13.83,0,*69
1509350692.84,32628,8.63,71948.5,-11.81,-13.69,-13.79,0,*65
1509350694.11,32629,8.63,71950.0,-11.81,-13.61,-13.51,0,*66
1509350695.4,32630,8.63,71954.8,-11.81,-13.37,-13.33,0,*69
1509350696.7,32631,8.63,71966.5,-11.81,-13.33,-13.33,0,*6C
1509350697.93,32632,8.63,71974.8,-11.79,-13.19,-13.19,0,*68
1509350699.14,32633,8.63,71950.8,-11.79,-13.65,-13.69,0,*65
1509350700.41,32634,8.63,71934.3,-11.81,-13.61,-13.51,0,*6A
1509350701.71,32635,8.63,71936.0,-11.81,-13.61,-13.61,0,*68
1509350702.95,32636,8.63,71924.5,-11.79,-13.61,-13.51,0,*6F
1509350704.22,32637,8.63,71904.5,-11.81,-13.61,-13.47,0,*6E
1509350705.49,32638,8.63,71920.8,-11.81,-13.51,-13.33,0,*61
1509350706.71,32639,8.63,71924.8,-11.79,-13.51,-13.47,0,*64
1509350707.95,32640,8.63,71938.8,-11.81,-13.23,-13.07,0,*6C
1509350709.2,32641,8.63,71938.5,-11.81,-13.47,-13.51,0,*6C
1509350710.41,32642,8.63,71946.3,-11.79,-13.51,-13.47,0,*68
1509350711.71,32643,8.63,71960.5,-11.81,-13.37,-13.37,0,*69
1509350712.92,32644,8.63,71966.3,-11.79,-13.47,-13.51,0,*6E
1509350714.16,32645,8.63,71952.0,-11.79,-13.93,-13.79,0,*6C
1509350715.37,32646,8.63,71970.3,-11.79,-13.65,-13.51,0,*6C
1509350716.62,32647,8.63,71974.0,-11.81,-13.51,-13.51,0,*6D
1509350717.89,32648,8.63,71964.5,-11.81,-13.37,-13.47,0,*65
1509350719.13,32649,8.63,71956.3,-11.79,-13.37,-13.23,0,*61
1509350720.4,32650,8.63,71950.0,-11.81,-13.47,-13.33,0,*68
1509350721.63,32651,8.63,71960.5,-11.81,-13.47,-13.47,0,*6A
1509350722.88,32652,8.63,71958.0,-11.81,-13.23,-13.23,0,*69
1509350724.15,32653,8.63,71974.8,-11.79,-13.33,-13.33,0,*6F
1509350725.42,32654,8.63,72010.3,-11.79,-13.37,-13.37,0,*68
1509350726.66,32655,8.63,72000.8,-11.79,-13.93,-13.83,0,*68
1509350727.9,32656,8.63,72002.8,-11.79,-14.11,-14.05,0,*6F
1509350729.18,32657,8.63,71994.0,-11.81,-13.97,-13.69,0,*6D
1509350730.43,32658,8.63,71968.8,-11.81,-14.19,-14.19,0,*63
1509350731.67,32659,8.63,71944.8,-11.81,-14.11,-14.11,0,*62
1509350732.94,32660,8.63,71896.3,-11.83,-14.51,-14.43,0,*69
1509350734.15,32661,8.63,71878.5,-11.83,-13.69,-13.65,0,*67
1509350735.37,32662,8.63,71878.8,-11.83,-13.73,-13.73,0,*68
1509350736.64,32663,8.63,71886.0,-11.83,-13.87,-13.83,0,*6D
1509350737.88,32664,8.63,71900.0,-11.85,-13.73,-13.73,0,*68
1509350739.1,32665,8.63,71884.8,-11.83,-13.73,-13.55,0,*6B
1509350740.32,32666,8.63,71886.8,-11.83,-13.55,-13.51,0,*68
1509350741.59,32667,8.63,71892.8,-11.83,-13.97,-13.87,0,*6C
1509350742.83,32668,8.63,71892.5,-11.85,-13.65,-13.65,0,*64
1509350744.07,32669,8.63,71900.0,-11.85,-13.65,-13.55,0,*66
1509350745.31,32670,8.63,71908.0,-11.85,-13.51,-13.43,0,*6E
1509350746.59,32671,8.63,71902.0,-11.85,-14.11,-14.01,0,*6D
1509350747.8,32672,8.63,71890.3,-11.83,-13.69,-13.55,0,*66
1509350749.04,32673,8.63,71896.5,-11.85,-13.55,-13.43,0,*69
1509350750.34,32674,8.63,71910.8,-11.85,-13.83,-13.83,0,*69
1509350751.6,32675,8.63,71914.3,-11.83,-13.87,-13.87,0,*6E
1509350752.9,32676,8.63,71920.0,-11.85,-13.29,-13.29,0,*6B
1509350754.19,32677,8.63,71928.5,-11.85,-13.83,-13.87,0,*6E
1509350755.43,32678,8.63,71930.8,-11.85,-13.65,-13.69,0,*69
1509350756.66,32679,8.63,71934.0,-11.85,-13.43,-13.43,0,*64
1509350757.96,32680,8.63,71932.5,-11.85,-13.37,-13.37,0,*62
1509350759.2,32681,8.63,71938.3,-11.85,-13.55,-13.51,0,*67
1509350760.47,32682,8.63,71940.3,-11.85,-13.23,-13.29,0,*6A
1509350761.76,32683,8.63,71938.5,-11.85,-13.01,-13.01,0,*61
1509350763.05,32684,8.63,71934.5,-11.85,-13.01,-13.01,0,*66
1509350764.29,32685,8.63,71930.5,-11.85,-12.97,-12.89,0,*68
1509350765.54,32686,8.63,71932.5,-11.85,-12.97,-12.97,0,*64
1509350766.79,32687,8.63,71942.0,-11.83,-13.01,-12.97,0,*6D
1509350768.03,32688,8.63,71940.8,-11.83,-12.83,-12.89,0,*66
1509350769.25,32689,8.63,71930.0,-11.83,-13.51,-13.51,0,*6D
1509350770.47,32690,8.63,71938.3,-11.83,-13.43,-13.43,0,*65
1509350771.69,32691,8.63,71932.8,-11.83,-13.23,-13.15,0,*61
1509350772.9,32692,8.63,71928.3,-11.83,-13.15,-13.15,0,*67
1509350774.12,32693,8.63,71934.8,-11.83,-13.23,-13.23,0,*66
1509350775.36,32694,8.63,71942.0,-11.85,-13.11,-13.11,0,*67
1509350776.61,32695,8.63,71940.0,-11.81,-12.93,-12.97,0,*66
1509350777.85,32696,8.63,71934.8,-11.81,-13.11,-13.23,0,*60
1509350779.1,32697,8.63,71936.5,-11.81,-13.07,-13.11,0,*67
1509350780.35,32698,8.63,71938.3,-11.81,-13.19,-13.19,0,*6F
1509350781.6,32699,8.63,71928.0,-11.81,-13.19,-13.23,0,*67
1509350782.87,32700,8.63,71922.3,-11.81,-13.19,-13.33,0,*67
1509350784.14,32701,8.63,71940.3,-11.81,-13.37,-13.47,0,*69
1509350785.43,32702,8.63,71946.5,-11.81,-13.37,-13.37,0,*6D
1509350786.69,32703,8.63,71936.0,-11.81,-13.37,-13.47,0,*6B
1509350787.94,32704,8.63,71942.0,-11.81,-13.23,-13.23,0,*6B
1509350789.18,32705,8.63,71950.5,-11.81,-13.65,-13.65,0,*6A
1509350790.47,32706,8.63,71950.3,-11.81,-13.33,-13.37,0,*6D
1509350791.69,32707,8.63,71952.8,-11.83,-13.11,-13.11,0,*6A
1509350792.93,32708,8.63,71956.8,-11.83,-13.23,-13.37,0,*60
1509350794.15,32709,8.63,71962.5,-11.83,-13.11,-13.11,0,*64
1509350795.41,32710,8.63,71952.3,-11.81,-13.33,-13.47,0,*6D
1509350796.65,32711,8.63,71958.0,-11.83,-13.29,-13.43,0,*61
1509350797.89,32712,8.63,71956.0,-11.83,-13.37,-13.43,0,*6D
1509350799.12,32713,8.63,71954.0,-11.83,-13.51,-13.55,0,*6B
1509350800.34,32714,8.63,71952.5,-11.83,-13.51,-13.55,0,*6C
1509350801.61,32715,8.63,71960.5,-11.85,-13.23,-13.29,0,*65
1509350802.83,32716,8.63,71962.5,-11.83,-13.15,-13.11,0,*6E
1509350804.04,32717,8.63,71974.5,-11.83,-13.11,-13.15,0,*6F
1509350805.29,32718,8.63,71972.0,-11.83,-13.29,-13.23,0,*6E
1509350806.51,32719,8.63,71972.3,-11.83,-13.51,-13.43,0,*66
1509350807.73,32720,8.63,71986.8,-11.83,-13.23,-13.23,0,*6F
1509350809.0,32721,8.63,71986.8,-11.83,-13.37,-13.37,0,*6E
1509350810.25,32722,8.63,71984.3,-11.85,-13.51,-13.55,0,*6F
1509350811.46,32723,8.63,71994.5,-11.83,-13.23,-13.15,0,*69
1509350812.68,32724,8.63,71998.3,-11.83,-13.43,-13.55,0,*6C
1509350813.92,32725,8.63,72010.0,-11.85,-13.73,-13.73,0,*6C
1509350815.14,32726,8.63,72014.0,-11.83,-13.55,-13.55,0,*69
1509350816.36,32727,8.63,72014.0,-11.83,-13.55,-13.51,0,*6C
1509350817.57,32728,8.63,72016.5,-11.83,-13.15,-13.15,0,*67
1509350818.79,32729,8.63,72012.3,-11.83,-13.15,-13.23,0,*63
1509350820.0,32730,8.63,72014.8,-11.83,-13.11,-13.15,0,*6A
1509350821.21,32731,8.63,72014.0,-11.83,-13.43,-13.43,0,*6F
1509350822.43,32732,8.63,72008.5,-11.83,-13.15,-13.15,0,*6C
1509350823.67,32733,8.63,72014.3,-11.83,-13.83,-13.73,0,*62
1509350824.89,32734,8.63,72012.5,-11.83,-13.55,-13.55,0,*6A
1509350826.11,32735,8.63,72018.3,-11.83,-13.23,-13.15,0,*6E
1509350827.35,32736,8.63,72018.8,-11.83,-13.23,-13.29,0,*62
1509350828.62,32737,8.63,72022.5,-11.85,-13.23,-13.29,0,*65
1509350829.84,32738,8.63,72020.3,-11.83,-13.23,-13.23,0,*66
1509350831.09,32739,8.63,72020.3,-11.83,-13.29,-13.43,0,*6B
1509350832.3,32740,8.63,72022.5,-11.83,-13.55,-13.55,0,*69
1509350833.52,32741,8.63,72020.5,-11.83,-13.43,-13.51,0,*6B
1509350834.77,32742,8.63,72020.0,-11.85,-13.51,-13.69,0,*66
1509350835.98,32743,8.63,72020.8,-11.83,-13.55,-13.69,0,*65
1509350837.2,32744,8.63,72016.3,-11.83,-13.55,-13.55,0,*6D
1509350838.47,32745,8.63,72012.5,-11.83,-13.83,-13.83,0,*6C
1509350839.75,32746,8.63,72010.0,-11.83,-14.51,-14.51,0,*6F
1509350841.0,32747,8.63,72008.3,-11.85,-14.23,-14.23,0,*68
1509350842.26,32748,8.63,72006.3,-11.83,-13.87,-13.83,0,*65
1509350843.5,32749,8.63,72002.0,-11.85,-13.55,-13.55,0,*66
1509350844.74,32750,8.63,71996.3,-11.85,-13.55,-13.43,0,*69
1509350845.96,32751,8.63,71990.5,-11.83,-13.73,-13.69,0,*62
1509350847.17,32752,8.63,71990.0,-11.83,-13.65,-13.55,0,*69
1509350848.39,32753,8.63,71984.8,-11.83,-13.73,-13.65,0,*6C
1509350849.63,32754,8.63,71990.0,-11.85,-13.73,-13.69,0,*61
1509350850.85,32755,8.63,71984.5,-11.83,-13.51,-13.43,0,*6E
1509350852.09,32756,8.63,71990.3,-11.85,-13.55,-13.55,0,*68
1509350853.36,32757,8.63,71986.0,-11.85,-13.87,-13.73,0,*62
1509350854.58,32758,8.63,71988.0,-11.83,-13.55,-13.55,0,*60
1509350855.81,32759,8.63,71990.8,-11.85,-13.55,-13.43,0,*60
1509350857.03,32760,8.63,71992.8,-11.83,-13.55,-13.51,0,*6F
1509350858.25,32761,8.63,71998.0,-11.83,-13.55,-13.43,0,*6D
1509350859.47,32762,8.63,71996.3,-11.83,-13.51,-13.55,0,*6D
1509350860.69,32763,8.63,72000.0,-11.83,-13.43,-13.51,0,*6B
1509350861.93,32764,8.63,71996.8,-11.85,-13.43,-13.43,0,*69
1509350863.2,32765,8.63,71992.5,-11.83,-13.37,-13.37,0,*6E
1509350864.44,32766,8.63,71992.5,-11.85,-13.51,-13.43,0,*68
1509350865.66,32767,8.63,71992.8,-11.83,-13.51,-13.43,0,*6F
1509350866.88,32768,8.63,71992.8,-11.83,-13.65,-13.65,0,*63
1509350868.1,32769,8.63,71994.3,-11.83,-13.55,-13.51,0,*66
1509350869.32,32770,8.63,71992.8,-11.83,-13.51,-13.51,0,*6A
1509350870.54,32771,8.63,71998.8,-11.83,-13.55,-13.51,0,*6F
1509350871.81,32772,8.63,71994.8,-11.83,-13.87,-13.87,0,*68
1509350873.02,32773,8.63,71994.0,-11.83,-13.69,-13.69,0,*69
1509350874.27,32774,8.63,71992.3,-11.83,-13.83,-13.73,0,*61
1509350875.48,32775,8.63,71994.0,-11.83,-13.69,-13.65,0,*63
1509350876.73,32776,8.63,71994.8,-11.85,-14.29,-14.23,0,*60
1509350877.98,32777,8.63,71988.5,-11.83,-14.55,-14.61,0,*6A
1509350879.25,32778,8.63,71988.3,-11.83,-14.51,-14.51,0,*62
1509350880.53,32779,8.63,71986.5,-11.87,-14.47,-14.55,0,*64
1509350881.8,32780,8.63,71988.0,-11.87,-14.43,-14.43,0,*61
1509350883.06,32781,8.63,71994.5,-11.87,-13.79,-13.79,0,*60
1509350884.33,32782,8.63,71992.0,-11.89,-13.87,-13.93,0,*68
1509350885.61,32783,8.63,71990.3,-11.89,-14.15,-14.01,0,*69
1509350886.87,32784,8.63,71988.5,-11.89,-13.93,-14.01,0,*67
1509350888.09,32785,8.63,71990.8,-11.87,-13.69,-13.73,0,*6F
1509350889.39,32786,8.63,71990.5,-11.89,-13.61,-13.61,0,*69
1509350890.68,32787,8.63,72002.3,-11.89,-13.61,-13.61,0,*68
1509350891.92,32788,8.63,72002.5,-11.89,-13.43,-13.43,0,*67
1509350893.15,32789,8.63,72010.5,-11.89,-13.43,-13.43,0,*66
1509350894.41,32790,8.63,72012.0,-11.89,-13.33,-13.47,0,*6D
1509350895.66,32791,8.63,72016.0,-11.89,-13.55,-13.55,0,*6F
1509350896.92,32792,8.63,72012.8,-11.89,-13.87,-13.93,0,*69
1509350898.18,32793,8.63,72016.5,-11.89,-13.73,-13.87,0,*66
1509350899.42,32794,8.63,72020.5,-11.89,-13.55,-13.55,0,*6A